Torna al catalogo

COSMOS 489

AttivoMilitareLEO
NORAD 6019·PAYLOAD·🇷🇺 Russia

Lanciato May 6, 1972 da Plesetsk Cosmodrome

Loading…

Prossimi Passaggi (prossime 24 ore)

TLE

AggiornatoSource: Space-Track

Epoca: Sep 14, 2026, 04:38 UTC

1 06019U 72035A   26257.19332348  .00000016  00000-0  39870-4 0  9996
2 06019  74.0212 178.1876 0023281  97.6795  54.2103 13.76157576729125

Traccia COSMOS 489 in tempo reale con AllMySat

Download on the App Store